x

8775237 - Port Aransas, Tx (rtat2) Weather Station

1:30am - Tue 24th May 2016 All times are CDT. -5 hours from GMT.

  • Wind
    7mph, 11mph gusts
  • Sea Temp 82°f
  • Air Temp 80°f
  • Sea Pressure 1012.2mb
  • 8775237 - Port Aransas, Tx
  • 8775237 - Port Aransas, Tx

More Historic Weather Station data

Upgrade to MSW Pro to gain access to the past 30 days of data for over 8000 Wavebouys and Weather Stations around the globe.

Join Pro

Comparision Forecast

View Surf forecast
   
Tue 05/24 1:30am 7 11 mph 1012.2mb 82f 80f
1:24am 7 11 mph 1012.1mb 82f 80f
1:18am 6 13 mph 1012.2mb 82f 80f
1:12am 7 15 mph 1012.1mb 82f 80f
1:06am 8 13 mph 1012mb 82f 80f
1:00am 8 13 mph 1012mb 82f 80f
12:54am 7 11 mph 1012.2mb 82f 80f
12:48am  -  mph 1012.2mb 82f 80f
12:42am  -  mph 1012.2mb 82f 80f
12:36am  -  mph 1011.9mb 82f 80f
12:30am 9 15 mph 1011.8mb 82f 80f
12:24am 13 18 mph 1011.8mb 82f 80f
12:18am 10 15 mph 1011.7mb 82f 80f
12:12am 9 15 mph 1011.6mb 82f 80f
12:06am 8 17 mph 1011.5mb 82f 80f
12:00am 9 17 mph 1011.4mb 82f 80f
Mon 05/23 11:54pm 9 20 mph 1011.5mb 82f 80f
11:48pm 11 17 mph 1011.5mb 82f 80f
11:42pm 11 18 mph 1011.6mb 82f 80f
11:36pm 11 15 mph 1011.6mb 82f 80f
11:30pm 10 16 mph 1011.6mb 82f 80f
11:24pm 13 17 mph 1011.3mb 82f 80f
11:18pm 10 14 mph 1011.3mb 82f 80f
11:12pm 10 15 mph 1011.2mb 82f 80f
11:06pm 11 17 mph 1011.2mb 82f 80f
11:00pm 13 17 mph 1011.1mb 82f 80f
10:54pm 10 20 mph 1011.4mb 82f 80f
10:48pm 14 20 mph 1011.5mb 82f 80f
10:42pm 14 18 mph 1011.7mb 82f 80f
10:36pm 11 17 mph 1011.6mb 82f 80f
10:30pm 11 18 mph 1011.7mb 82f 80f
10:24pm 13 17 mph 1011.6mb 82f 80f
10:18pm  -  mph 1011.5mb 82f 80f
10:12pm  -  mph 1011.3mb 82f 80f
10:06pm  -  mph 1011.3mb 82f 80f
10:00pm  -  mph 1011.4mb 81f -
9:54pm  -  mph 1011.2mb 81f -
9:48pm  -  mph 1011.3mb 81f -
9:42pm  -  mph 1011.4mb 81f -
9:36pm  -  mph 1011.4mb 81f -
9:30pm 11 15 mph 1011.3mb 81f 80f
9:24pm 10 15 mph 1011.4mb 81f 80f
9:18pm 8 15 mph 1011.4mb 81f -
9:12pm 9 14 mph 1011.5mb 81f -
9:06pm 8 16 mph 1011.3mb 81f -
9:00pm 10 16 mph 1011.2mb 81f 80f
8:54pm 14 20 mph 1011mb 81f 80f
8:48pm 10 15 mph - 81f -
8:42pm 14 18 mph - 81f -
8:36pm 10 15 mph - 81f -
8:30pm  -  mph - 81f -
8:24pm  -  mph - 81f -
8:18pm  -  mph - 81f -
8:12pm  -  mph - 81f -
8:06pm  -  mph - 81f -
8:00pm  -  mph - 81f 80f
7:54pm  -  mph - 81f 80f
7:48pm 14 21 mph 1010mb - -
7:42pm 15 22 mph 1010mb - -
7:36pm 14 21 mph 1009.9mb - -
7:30pm  -  mph 1010mb 81f -
7:24pm  -  mph 1010mb 81f -
7:18pm 15 21 mph - 81f -
7:12pm 14 22 mph - 81f -
7:06pm 13 18 mph - 81f -
7:00pm 14 18 mph 1009.6mb 81f 81f
6:54pm 14 20 mph 1009.7mb 81f 81f
6:48pm  -  mph 1009.5mb - -
6:42pm  -  mph 1009.5mb - -
6:36pm  -  mph 1009.5mb - -
6:30pm  -  mph - 81f -
6:24pm  -  mph - 81f -
6:18pm  -  mph 1009.4mb 81f -
6:12pm  -  mph 1009.4mb 81f -
6:06pm  -  mph 1009.5mb 81f -
6:00pm  -  mph 1009.6mb 81f 82f
5:54pm  -  mph 1009.6mb 81f 82f
5:48pm  -  mph - 81f -
5:42pm  -  mph - 80f -
5:36pm  -  mph - 80f -
5:30pm 16 21 mph 1009.5mb 80f 82f
5:24pm 13 22 mph 1009.6mb 80f 82f
5:18pm  -  mph 1009.6mb 80f -
5:12pm  -  mph 1009.7mb 81f -
5:06pm  -  mph 1009.8mb 81f -
5:00pm  -  mph 1009.9mb 81f 82f
4:54pm  -  mph 1010.1mb 81f 82f
4:48pm  -  mph 1010.1mb - -
4:42pm  -  mph 1010.1mb - -
4:36pm  -  mph 1010.2mb - -
4:30pm 14 20 mph 1010.3mb 81f 82f
4:24pm 13 21 mph 1010.3mb 80f 82f
4:18pm 14 20 mph 1010.3mb 80f 82f
4:12pm 13 18 mph 1010.4mb 80f 82f
4:06pm 11 18 mph 1010.4mb 80f 82f
4:00pm 14 18 mph 1010.4mb 80f 82f
3:54pm 13 20 mph 1010.5mb 80f 82f
3:48pm 13 18 mph 1010.6mb 80f 82f
3:42pm 14 18 mph 1010.7mb 80f 82f
3:36pm 14 20 mph 1010.7mb 80f 82f
3:30pm 15 21 mph 1010.8mb 80f 82f
3:24pm 14 20 mph 1010.8mb 80f 82f
3:18pm 11 20 mph 1010.8mb 80f 82f
3:12pm 11 17 mph 1010.9mb 80f 82f
3:06pm 11 20 mph 1011mb 80f 82f
3:00pm 15 20 mph 1011mb 80f 82f
2:54pm 13 22 mph 1011mb 80f 82f
2:48pm 13 17 mph 1011mb 80f 82f
2:42pm 11 20 mph 1011.1mb 80f 82f
2:36pm 14 20 mph 1011.2mb 80f 82f
2:30pm 14 20 mph 1011.3mb 81f 82f
2:24pm 14 21 mph 1011.3mb 81f 82f
2:18pm 14 17 mph 1011.4mb 80f 82f
2:12pm 14 18 mph 1011.4mb 80f 82f
2:06pm 14 20 mph 1011.4mb 80f 82f
2:00pm 14 22 mph 1011.4mb 80f 81f
1:54pm 14 20 mph 1011.5mb 80f 82f
1:48pm 13 21 mph 1011.6mb 80f 82f
1:42pm 15 21 mph 1011.6mb 80f 82f
1:36pm 14 21 mph 1011.6mb 80f 82f
1:30pm 14 22 mph 1011.6mb 80f 82f
1:24pm 14 22 mph 1011.7mb 80f 82f
1:18pm 14 20 mph 1011.7mb 80f 82f
1:12pm 15 21 mph 1011.8mb 80f 81f
1:06pm 15 20 mph 1011.9mb 80f 81f
1:00pm 14 20 mph 1011.9mb 80f -
12:54pm 10 17 mph 1012mb 80f -
12:48pm  -  mph - - 81f
12:42pm  -  mph - - 81f
12:36pm  -  mph - - 81f
12:30pm 14 20 mph 1012mb 80f 81f
12:24pm 13 20 mph 1012.1mb 80f 81f
12:18pm 14 20 mph 1012.1mb 80f 81f
12:12pm 10 16 mph 1012.1mb 80f 81f
12:06pm 15 20 mph 1012.1mb 80f 81f
12:00pm 11 20 mph 1012.1mb 80f 81f
11:54am 14 17 mph 1012mb 80f 81f
11:48am 11 17 mph 1012.1mb 80f 81f
11:42am 13 20 mph 1012.1mb 80f 80f
11:36am 13 18 mph 1012.1mb 80f 80f
11:30am 14 18 mph 1012mb 80f 80f
11:24am 13 20 mph 1012mb 80f 81f
11:18am 16 20 mph 1011.8mb 80f 80f
11:12am 14 20 mph 1011.9mb 80f 81f
11:06am 10 20 mph 1011.9mb 80f 81f
11:00am 14 18 mph 1011.8mb 80f 80f
10:54am 14 17 mph 1011.8mb 80f 80f
10:48am 13 17 mph 1011.9mb 80f 80f
10:42am 13 17 mph 1012mb 80f 80f
10:36am 13 18 mph 1012mb 80f 80f
10:30am 13 18 mph 1012mb 80f 80f
10:24am 13 17 mph 1011.9mb 80f 80f
10:18am 13 17 mph 1011.8mb 80f 80f
10:12am 14 18 mph 1011.7mb 80f 80f
10:06am 13 21 mph 1011.8mb 80f 80f
10:00am 14 18 mph 1011.7mb 80f 80f
9:54am 14 20 mph 1011.6mb 80f 80f
9:48am 14 20 mph 1011.5mb 80f 80f
9:42am 14 18 mph 1011.4mb 80f 80f
9:36am 16 20 mph 1011.4mb 80f 80f
9:30am 13 17 mph 1011.4mb 80f 80f
9:24am 10 14 mph 1011.3mb 80f 81f
9:18am 10 17 mph 1011.1mb 80f 80f
9:12am 10 15 mph 1011.1mb 80f 80f
9:06am 10 16 mph 1011mb 80f 80f
9:00am 11 17 mph 1010.9mb 80f 80f
8:54am 11 17 mph 1010.8mb 80f 81f
8:48am 8 17 mph 1010.8mb 80f 81f
8:42am 10 17 mph 1010.8mb 80f 81f
8:36am 11 17 mph 1010.8mb 80f 81f
8:30am 13 16 mph 1010.7mb 80f 80f
8:24am 9 13 mph 1010.7mb 80f 81f
8:18am 10 15 mph 1010.6mb 80f 80f
8:12am 11 16 mph 1010.6mb 80f 80f
8:06am 10 16 mph 1010.6mb 80f 80f
8:00am 11 15 mph 1010.6mb 80f 80f
7:54am 10 14 mph 1010.7mb 80f 80f
7:48am 8 15 mph 1010.6mb 80f 80f
7:42am 10 14 mph 1010.6mb 81f 80f
7:36am 9 13 mph 1010.7mb 81f 80f
7:30am 9 11 mph 1010.6mb 81f 80f
7:24am 8 14 mph 1010.7mb 81f 80f
7:18am 8 13 mph 1010.7mb 81f 79f
7:12am 8 13 mph 1010.7mb 81f 79f
7:06am 8 11 mph 1010.6mb 81f 79f
7:00am 8 14 mph 1010.7mb 81f 79f
6:54am 9 13 mph 1010.7mb 81f 79f
6:48am 8 11 mph 1010.6mb 81f 79f
6:42am 9 14 mph 1010.5mb 81f 79f
6:36am 8 13 mph 1010.5mb 81f 79f
6:30am 8 14 mph 1010.6mb 81f 79f
6:24am 9 11 mph 1010.6mb 81f 79f
6:18am 7 11 mph 1010.7mb 81f 79f
6:12am 6 9 mph 1010.7mb 81f 79f
6:06am 6 9 mph 1010.7mb 81f 79f
6:00am 6 10 mph 1010.8mb 81f 79f
5:54am 6 10 mph 1010.7mb 81f 79f
5:48am 8 11 mph 1010.8mb 82f 79f
5:42am 7 10 mph 1010.9mb 82f 79f
5:36am 6 10 mph 1010.9mb 82f 79f
5:30am 7 11 mph 1011mb 82f 79f
5:24am 7 10 mph 1010.9mb 82f 79f
5:18am 7 11 mph 1011mb 82f 79f
5:12am 7 10 mph 1011.1mb 82f 79f
5:06am 6 9 mph 1011mb 82f 79f
5:00am 6 8 mph 1011mb 82f 79f
4:54am 7 9 mph 1010.9mb 82f 79f
4:48am 6 8 mph 1011mb 82f 79f
4:42am 5 8 mph 1011.1mb 82f 79f
4:36am 6 9 mph 1011.2mb 82f 79f
4:30am 5 8 mph 1011.1mb 82f 79f
4:24am 6 8 mph 1011.1mb 82f 79f
4:18am 6 8 mph 1011.1mb 82f 79f
4:12am 5 8 mph 1011.1mb 82f 78f
4:06am 5 8 mph 1011mb 82f 78f
4:00am 6 8 mph 1010.8mb 82f 79f
3:54am 6 9 mph 1010.9mb 82f 79f
3:48am 7 9 mph 1010.9mb 82f 79f
3:42am 6 9 mph 1010.9mb 82f 79f
3:36am 6 9 mph 1011mb 82f 79f
3:30am 6 10 mph 1011.1mb 82f 79f
3:24am 6 8 mph 1011.1mb 82f 79f
3:18am 5 7 mph 1011.3mb 82f 79f
3:12am 5 7 mph 1011.4mb 82f 79f
3:06am 5 9 mph 1011.3mb 82f 79f
3:00am 6 8 mph 1011.4mb 82f 79f
2:54am 3 7 mph 1011.5mb 82f 79f
2:48am 6 8 mph 1011.6mb 82f 79f
2:42am 7 9 mph 1011.5mb 82f 79f
2:36am 8 10 mph 1011.4mb 82f 79f
2:30am 6 9 mph 1011.6mb 82f 79f
2:24am 6 9 mph 1011.8mb 82f 79f
2:18am 6 9 mph 1011.9mb 82f 79f
2:12am 7 10 mph 1011.9mb 82f 79f
2:06am 8 11 mph 1011.9mb 82f 79f
2:00am 5 10 mph 1011.9mb 82f 79f
1:54am 7 10 mph 1012mb 82f 79f
1:48am 8 11 mph 1012.1mb 82f 79f
1:42am 7 11 mph 1012.3mb 82f 79f
1:36am 7 11 mph 1012.3mb 82f 79f
1:30am 7 10 mph 1012.4mb 82f 79f
1:24am 8 13 mph 1012.4mb 82f 79f
1:18am 8 13 mph 1012.2mb 82f 79f
1:12am 6 11 mph 1012.3mb 82f 79f
1:06am 7 11 mph 1012.3mb 82f 79f
1:00am 8 11 mph 1012.3mb 82f 79f
12:54am 9 13 mph 1012.3mb 82f 79f
12:48am  -  mph 1012.2mb 82f 79f
12:42am  -  mph 1012.2mb 82f 79f
12:36am  -  mph 1012mb 82f 79f
12:30am 9 13 mph 1011.9mb 82f 79f
12:24am 10 15 mph 1011.8mb 82f 79f
12:18am 13 15 mph 1011.7mb 82f 79f
12:12am 10 16 mph 1011.8mb 82f 79f
12:06am 11 16 mph 1011.8mb 82f 79f
12:00am 11 16 mph 1012mb 82f 79f
Sun 05/22 11:54pm 10 13 mph 1012.1mb 82f 79f
11:48pm 10 15 mph 1012mb 81f 79f
11:42pm 13 17 mph 1011.9mb 82f 79f
11:36pm 11 15 mph 1012mb 81f 79f
11:30pm 9 16 mph 1012.1mb 81f 79f
11:24pm 11 16 mph 1012mb 81f 79f
11:18pm 10 14 mph 1012.1mb 81f 79f
11:12pm 9 16 mph 1012.2mb 81f 79f
11:06pm 9 17 mph 1012.2mb 81f 79f
11:00pm 11 17 mph 1012.4mb 81f 79f
10:54pm 11 16 mph 1012.6mb 81f 79f
10:48pm 11 15 mph 1012.6mb 81f 79f
10:42pm 7 15 mph 1012.6mb 81f 79f
10:36pm 10 15 mph 1012.3mb 81f 79f
10:30pm 9 17 mph 1012.1mb 81f 79f
10:24pm 11 16 mph 1011.8mb 81f 79f
10:18pm  -  mph 1011.9mb 81f 79f
10:12pm  -  mph 1011.7mb 81f 79f
10:06pm  -  mph 1011.7mb 81f 79f
10:00pm  -  mph 1011.7mb 81f -
9:54pm  -  mph 1011.7mb 81f -
9:48pm 9 17 mph 1011.6mb 81f -
9:42pm 10 15 mph 1011.6mb 81f -
9:36pm 9 15 mph 1011.5mb 81f -
9:30pm 9 11 mph 1011.4mb 81f -
9:24pm 9 14 mph 1011.4mb 81f -
9:18pm  -  mph 1011.4mb 81f -
9:12pm  -  mph 1011.4mb 81f -
9:06pm  -  mph 1011.2mb 81f -
9:00pm 8 13 mph 1011.2mb 81f 78f
8:54pm 7 10 mph 1011.1mb 81f 78f
8:48pm 9 14 mph 1011.2mb - -
8:42pm 10 13 mph 1011mb - -
8:36pm 11 15 mph 1011.1mb - -
8:30pm 9 14 mph 1011.2mb 81f 79f
8:24pm 10 13 mph 1011.1mb 81f 79f
8:18pm  -  mph 1011mb 81f 78f
8:12pm  -  mph 1011.1mb 81f 78f
8:06pm  -  mph 1011mb 81f 78f
8:00pm 13 17 mph 1011mb 81f 78f
7:54pm 10 18 mph 1011mb 81f 79f
7:48pm 14 18 mph 1011.1mb 81f -
7:42pm 11 16 mph 1011.1mb 81f -
7:36pm 13 18 mph 1011.1mb 81f -
7:30pm  -  mph 1011.1mb 81f -
7:24pm  -  mph 1010.9mb 81f -
7:18pm 11 16 mph - 81f -
7:12pm 11 18 mph - 81f -
7:06pm 15 20 mph - 81f -
7:00pm  -  mph 1010.8mb 81f -
6:54pm  -  mph 1010.9mb 81f -
6:48pm  -  mph 1010.7mb 81f -
6:42pm  -  mph 1010.6mb 81f -
6:36pm  -  mph 1010.6mb 81f -
6:30pm  -  mph 1010.7mb 81f -
6:24pm  -  mph 1010.6mb 81f -
6:18pm  -  mph 1010.7mb 81f 81f
6:12pm  -  mph 1010.6mb 81f 81f
6:06pm  -  mph 1010.4mb 81f 81f
6:00pm  -  mph - 81f -
5:54pm  -  mph - 81f -
5:48pm 17 24 mph - 81f -
5:42pm 18 23 mph - 81f -
5:36pm 22 28 mph - 81f -
5:30pm  -  mph - 81f -
5:24pm  -  mph - 81f -
5:18pm 20 28 mph - 81f -
5:12pm 22 26 mph - 81f -
5:06pm 18 25 mph - 81f -
5:00pm  -  mph 1010.9mb 81f -
4:54pm  -  mph 1011mb 81f -
4:48pm  -  mph 1011mb 81f 80f
4:42pm  -  mph 1011mb 81f 80f
4:36pm  -  mph 1011.1mb 81f 80f
4:30pm 18 23 mph 1011.2mb 81f 81f
4:24pm 18 22 mph 1011.3mb 81f 81f
4:18pm 17 21 mph 1011.3mb 81f 82f
4:12pm 16 21 mph 1011.4mb 81f 81f
4:06pm 14 17 mph 1011.3mb 81f 82f
4:00pm 16 21 mph 1011.3mb 81f 81f
3:54pm 15 22 mph 1011.3mb 81f 81f
3:48pm 20 22 mph 1011.4mb 81f 81f
3:42pm 18 21 mph 1011.5mb 81f 81f
3:36pm 16 21 mph 1011.6mb 81f 81f
3:30pm 18 21 mph 1011.6mb 81f 81f
3:24pm 15 20 mph 1011.7mb 81f 81f
3:18pm 17 20 mph 1011.8mb 81f 81f
3:12pm 15 18 mph 1012mb 81f 81f
3:06pm 15 17 mph 1012mb 81f 81f
3:00pm 16 17 mph 1012.1mb 81f 81f
2:54pm 16 18 mph 1012.1mb 81f 81f
2:48pm 15 18 mph 1012.2mb 81f 81f
2:42pm 14 17 mph 1012.3mb 81f 81f
2:36pm 16 17 mph 1012.3mb 81f 81f
2:30pm 15 18 mph 1012.3mb 81f 81f
2:24pm 14 17 mph 1012.5mb 81f 81f
2:18pm 14 17 mph 1012.6mb 81f 82f
2:12pm 13 16 mph 1012.6mb 81f 82f
2:06pm 15 16 mph 1012.6mb 81f 81f
2:00pm 13 17 mph 1012.6mb 80f 81f
1:54pm 14 17 mph 1012.6mb 81f 81f
1:48pm 11 17 mph 1012.7mb 81f 82f
1:42pm 14 16 mph 1012.8mb 81f 81f
1:36pm 13 16 mph 1012.9mb 81f 81f
1:30pm 13 16 mph 1012.9mb 80f 81f
1:24pm 13 15 mph 1012.9mb 80f 81f
1:18pm 10 15 mph 1013mb 81f 81f
1:12pm 11 15 mph 1013mb 81f 81f
1:06pm 11 14 mph 1013.1mb 80f 81f
1:00pm 11 15 mph 1013.1mb 80f 81f
12:54pm 11 15 mph 1013mb 80f 81f
12:48pm 13 15 mph 1013mb 80f 81f
12:42pm 13 14 mph 1013mb 80f 81f
12:36pm 13 16 mph 1013mb 80f 81f
12:30pm 9 14 mph 1013.1mb 80f 82f
12:24pm 10 14 mph 1013.2mb 80f 81f
12:18pm 10 13 mph 1013.2mb 80f 81f
12:12pm 10 13 mph 1013.1mb 80f 81f
12:06pm 9 13 mph 1013.1mb 80f 81f
12:00pm 10 14 mph 1013.1mb 80f 81f
11:54am 9 11 mph 1013.1mb 80f 81f
11:48am 9 11 mph 1013.1mb 80f 81f
11:42am 9 10 mph 1013mb 80f 81f
11:36am 9 10 mph 1013mb 80f 81f
11:30am 8 11 mph 1013mb 80f 81f
11:24am 9 10 mph 1013mb 80f 81f
11:18am 10 11 mph 1012.9mb 80f 81f
11:12am 9 10 mph 1012.9mb 80f 81f
11:06am 9 10 mph 1012.9mb 80f 81f
11:00am 6 9 mph 1013mb 80f 81f
10:54am 6 8 mph 1013mb 80f 82f
10:48am 7 8 mph 1012.9mb 80f 82f
10:42am 6 9 mph 1012.9mb 80f 82f
10:36am 7 10 mph 1012.9mb 80f 81f
10:30am 6 9 mph 1013mb 80f 81f
10:24am 6 9 mph 1013.1mb 80f 81f
10:18am 7 8 mph 1013.1mb 80f 81f
10:12am 3 6 mph 1013.1mb 80f 82f
10:06am 2 6 mph 1013.2mb 80f 82f
10:00am 5 9 mph 1013.1mb 80f 82f
9:54am 6 8 mph 1013.2mb 80f 82f
9:48am 5 7 mph 1013.1mb 80f 82f
9:42am 5 9 mph 1013.1mb 80f 81f
9:36am 6 9 mph 1013.1mb 80f 81f
9:30am 6 9 mph 1013.2mb 80f 81f
9:24am 6 9 mph 1013.1mb 80f 81f
9:18am 5 7 mph 1013.1mb 80f 81f
9:12am 5 8 mph 1013.1mb 80f 81f
9:06am 5 8 mph 1013.1mb 80f 80f
9:00am 6 8 mph 1013.1mb 80f 80f
8:54am 5 8 mph 1013.2mb 80f 80f
8:48am 5 6 mph 1013.2mb 80f 80f
8:42am 3 6 mph 1013.2mb 80f 80f
8:36am 5 7 mph 1013.1mb 80f 80f
8:30am 6 7 mph 1013.1mb 80f 80f
8:24am 5 7 mph 1013.1mb 80f 80f
8:18am 5 7 mph 1013mb 80f 80f
8:12am 6 8 mph 1013mb 80f 80f
8:06am 7 8 mph 1013mb 80f 80f
8:00am 6 9 mph 1013mb 80f 80f
7:54am 6 7 mph 1013.1mb 80f 80f
7:48am 6 8 mph 1013mb 80f 80f
7:42am 6 9 mph 1012.7mb 80f 80f
7:36am 5 7 mph 1012.7mb 80f 80f
7:30am 6 7 mph 1012.8mb 80f 79f
7:24am 5 6 mph 1012.9mb 80f 79f
7:18am 5 6 mph 1012.9mb 80f 79f
7:12am 5 6 mph 1012.9mb 80f 79f
7:06am 5 7 mph 1012.9mb 80f 79f
7:00am 5 6 mph 1012.8mb 80f 79f
6:54am 5 6 mph 1012.8mb 80f 79f
6:48am 3 6 mph 1012.7mb 80f 79f
6:42am 5 6 mph 1012.7mb 80f 79f
6:36am 5 7 mph 1012.7mb 80f 79f
6:30am 5 7 mph 1012.5mb 80f 79f
6:24am 5 7 mph 1012.4mb 80f 79f
6:18am 5 6 mph 1012.5mb 80f 79f
6:12am 3 7 mph 1012.5mb 80f 79f
6:06am 5 7 mph 1012.4mb 80f 79f
6:00am 3 5 mph 1012.4mb 80f 79f
5:54am 3 8 mph 1012.4mb 80f 79f
5:48am 3 8 mph 1012.4mb 80f 79f
5:42am 6 7 mph 1012.4mb 80f 79f
5:36am 3 6 mph 1012.4mb 80f 79f
5:30am 6 8 mph 1012.5mb 80f 79f
5:24am 6 8 mph 1012.5mb 80f 79f
5:18am 6 8 mph 1012.5mb 80f 79f
5:12am 6 9 mph 1012.3mb 80f 79f
5:06am 6 9 mph 1012.3mb 80f 79f
5:00am 6 8 mph 1012.4mb 80f 79f
4:54am 6 11 mph 1012.4mb 80f 79f
4:48am 7 9 mph 1012.3mb 80f 79f
4:42am 7 9 mph 1012.3mb 80f 79f
4:36am 7 10 mph 1012.3mb 80f 79f
4:30am 6 10 mph 1012.3mb 80f 79f
4:24am 7 9 mph 1012.3mb 80f 79f
4:18am 6 10 mph 1012.3mb 80f 79f
4:12am 7 10 mph 1012.3mb 80f 79f
4:06am 7 10 mph 1012.3mb 80f 79f
4:00am 6 13 mph 1012.3mb 80f 79f
3:54am 7 10 mph 1012.3mb 80f 79f
3:48am 7 9 mph 1012.3mb 80f 79f
3:42am 8 10 mph 1012.3mb 80f 79f
3:36am 7 10 mph 1012.4mb 80f 79f
3:30am 7 10 mph 1012.5mb 80f 79f
3:24am 6 9 mph 1012.5mb 80f 79f
3:18am 7 11 mph 1012.5mb 80f 79f
3:12am 7 11 mph 1012.5mb 80f 79f
3:06am 7 9 mph 1012.6mb 80f 79f
3:00am 7 9 mph 1012.6mb 80f 79f
2:54am 7 9 mph 1012.7mb 81f 79f
2:48am 7 10 mph 1012.8mb 81f 79f
2:42am 6 8 mph 1013mb 81f 79f
2:36am 6 9 mph 1013mb 81f 79f
2:30am 7 10 mph 1013.1mb 81f 79f
2:24am 8 10 mph 1013.2mb 81f 79f
2:18am 7 10 mph 1013.3mb 80f 79f
2:12am 7 10 mph 1013.3mb 81f 79f
2:06am 6 9 mph 1013.4mb 81f 79f
2:00am 7 9 mph 1013.5mb 81f 79f
1:54am 6 11 mph 1013.6mb 81f 80f
1:48am 6 11 mph 1013.7mb 81f 79f
1:42am 8 10 mph 1013.7mb 81f 79f
1:36am 7 10 mph 1013.7mb 81f 79f
1:30am 7 14 mph 1013.8mb 81f 79f
1:24am 7 9 mph 1013.8mb 81f 80f
1:18am 7 9 mph 1013.9mb 81f 79f
1:12am 6 10 mph 1013.9mb 81f 79f
1:06am 6 10 mph 1014mb 82f 79f
1:00am 7 10 mph 1013.9mb 81f 79f
12:54am 7 9 mph 1014mb 81f 79f
12:48am  -  mph 1014.1mb 81f 79f
12:42am  -  mph 1014.2mb 81f 79f
12:36am  -  mph 1014.2mb 82f 79f
12:30am 6 7 mph 1014.4mb 82f 80f
12:24am 6 9 mph 1014.4mb 81f 80f
12:18am 6 9 mph 1014.4mb 81f 80f
12:12am 7 9 mph 1014.4mb 81f 80f
12:06am 7 9 mph 1014.4mb 81f 80f
12:00am 6 10 mph 1014.4mb 81f 80f
Sat 05/21 11:54pm 6 10 mph 1014.4mb 81f 80f
11:48pm 7 10 mph 1014.3mb 82f 80f
11:42pm 7 10 mph 1014.3mb 81f 80f
11:36pm 6 10 mph 1014.4mb 82f 80f
11:30pm 7 13 mph 1014.4mb 82f 80f
11:24pm 6 10 mph 1014.3mb 82f 80f
11:18pm 9 13 mph 1014.4mb 82f 80f
11:12pm 9 13 mph 1014.3mb 82f 80f
11:06pm 9 11 mph 1014.3mb 82f 80f
11:00pm 8 14 mph 1014.4mb 81f 80f
10:54pm 7 11 mph 1014.3mb 82f 80f
10:48pm  -  mph 1014.2mb 81f 80f
10:42pm  -  mph 1014.1mb 82f 80f
10:36pm  -  mph 1014.1mb 82f 80f
10:30pm 7 11 mph 1014.1mb 82f 80f
10:24pm 7 13 mph 1014.1mb 82f 80f
10:18pm  -  mph 1014.2mb 82f 80f
10:12pm  -  mph 1014.2mb 82f 80f
10:06pm  -  mph 1014.2mb 82f 80f
10:00pm  -  mph 1014.2mb 82f -
9:54pm  -  mph 1014.1mb 82f -
9:48pm  -  mph 1014mb - 80f
9:42pm  -  mph 1013.9mb - 80f
9:36pm  -  mph 1013.9mb - 80f
9:30pm  -  mph - 82f -
9:24pm  -  mph - 82f -
9:18pm  -  mph 1013.6mb 82f 80f
9:12pm  -  mph 1013.6mb 82f 80f
9:06pm  -  mph 1013.6mb 82f 80f
9:00pm  -  mph 1013.6mb 81f 80f
8:54pm  -  mph 1013.6mb 82f 80f
8:48pm  -  mph 1013.6mb - -
8:42pm  -  mph 1013.6mb - -
8:36pm  -  mph 1013.6mb - -
8:30pm  -  mph 1013.5mb - -
8:24pm  -  mph 1013.4mb - -
8:18pm  -  mph 1013.3mb 82f 80f
8:12pm  -  mph 1013.2mb 82f 81f
8:06pm  -  mph 1013.2mb 81f 81f
8:00pm  -  mph 1013.1mb 82f -
7:54pm  -  mph 1013.1mb 82f -
7:48pm  -  mph 1013.1mb - -
7:42pm  -  mph 1013mb - -
7:36pm  -  mph 1012.9mb - -
7:30pm 8 11 mph 1012.8mb 82f -
7:24pm 8 10 mph 1012.8mb 82f -
7:18pm  -  mph 1012.8mb 82f 81f
7:12pm  -  mph 1012.7mb 81f 81f
7:06pm  -  mph 1012.6mb 82f 81f
7:00pm  -  mph - 82f -
6:54pm  -  mph - 82f -
6:48pm  -  mph 1012.5mb - -
6:42pm  -  mph 1012.5mb - -
6:36pm  -  mph 1012.5mb - -
6:30pm 9 14 mph 1012.5mb 81f 82f
6:24pm 8 11 mph 1012.6mb 81f 82f
6:18pm  -  mph 1012.6mb 81f -
6:12pm  -  mph 1012.6mb 81f -
6:06pm  -  mph 1012.6mb 81f -
6:00pm  -  mph - 81f 81f
5:54pm  -  mph - 81f 81f
5:48pm  -  mph 1012.8mb 81f -
5:42pm  -  mph 1013mb 81f -
5:36pm  -  mph 1013.1mb 81f -
5:30pm  -  mph 1013.1mb 81f -
5:24pm  -  mph 1013.1mb 81f -
5:18pm  -  mph 1013.1mb 81f 82f
5:12pm  -  mph 1013.1mb 81f 82f
5:06pm  -  mph 1013.1mb 81f 82f
5:00pm  -  mph 1013.2mb 81f -
4:54pm  -  mph 1013.1mb 81f -
4:48pm  -  mph 1013.2mb - -
4:42pm  -  mph 1013.3mb - -
4:36pm  -  mph 1013.4mb - -
4:30pm 13 15 mph 1013.3mb 81f 82f
4:24pm 10 14 mph 1013.3mb 81f 82f
4:18pm 11 14 mph 1013.4mb 81f 82f
4:12pm 8 14 mph 1013.5mb 80f 82f
4:06pm 9 13 mph 1013.6mb 80f 82f
4:00pm 11 14 mph 1013.7mb 81f 82f
3:54pm 10 13 mph 1013.8mb 81f 82f
3:48pm 9 13 mph 1013.9mb 80f 82f
3:42pm 9 14 mph 1013.9mb 80f 82f
3:36pm 9 13 mph 1014.1mb 80f 82f
3:30pm 8 11 mph 1014.2mb 80f 82f
3:24pm 8 13 mph 1014.2mb 80f 82f
3:18pm 9 13 mph 1014.3mb 80f 82f
3:12pm 8 11 mph 1014.3mb 80f 82f
3:06pm 9 13 mph 1014.4mb 80f 82f
3:00pm 10 14 mph 1014.4mb 80f 82f
2:54pm 8 14 mph 1014.4mb 80f 82f
2:48pm 7 13 mph 1014.4mb 80f 83f
2:42pm 8 13 mph 1014.4mb 80f 83f
2:36pm 8 10 mph 1014.4mb 80f 83f
2:30pm 8 11 mph 1014.5mb 80f 82f
2:24pm 8 11 mph 1014.6mb 80f 82f
2:18pm 7 11 mph 1014.5mb 80f 83f
2:12pm 8 11 mph 1014.7mb 80f 83f
2:06pm 6 13 mph 1014.7mb 80f 83f
2:00pm 10 13 mph 1014.7mb 80f 82f
1:54pm 7 13 mph 1014.8mb 80f 82f
1:48pm 8 13 mph 1014.8mb 80f 82f
1:42pm 10 14 mph 1015mb 80f 82f
1:36pm 9 14 mph 1015mb 80f 82f
1:30pm 9 14 mph 1015.1mb 80f 82f
1:24pm 11 14 mph 1015.2mb 79f 81f
1:18pm 9 13 mph 1015.3mb 80f 81f
1:12pm 8 13 mph 1015.4mb 80f 81f
1:06pm 9 14 mph 1015.5mb 80f 80f
1:00pm 11 16 mph 1015.4mb 80f 80f
12:54pm 7 10 mph 1015.5mb 79f 80f
12:48pm 8 9 mph 1015.5mb 80f 80f
12:42pm 7 11 mph 1015.6mb 80f 80f
12:36pm 9 13 mph 1015.7mb 79f 80f
12:30pm 10 13 mph 1015.7mb 79f 80f
12:24pm 9 10 mph 1015.8mb 79f 80f
12:18pm 8 10 mph 1015.9mb 79f 80f
12:12pm 8 10 mph 1016mb 79f 80f
12:06pm 8 10 mph 1015.9mb 80f 80f
12:00pm 8 10 mph 1016mb 80f 80f
11:54am 8 10 mph 1016mb 79f 80f
11:48am 8 9 mph 1016.1mb 79f 80f
11:42am 8 10 mph 1016.1mb 79f 80f
11:36am 8 9 mph 1016.1mb 79f 80f
11:30am 9 11 mph 1016.1mb 79f 80f
11:24am 7 10 mph 1016.1mb 79f 80f
11:18am 7 10 mph 1016.1mb 79f 80f
11:12am 7 9 mph 1016.1mb 79f 80f
11:06am 8 11 mph 1016.1mb 79f 80f
11:00am 7 10 mph 1016.2mb 80f 80f
10:54am 9 13 mph 1016.2mb 79f 80f
10:48am 9 11 mph 1016.1mb 79f 80f
10:42am 7 10 mph 1016.2mb 79f 80f
10:36am 9 11 mph 1016.3mb 79f 80f
10:30am 7 11 mph 1016.3mb 79f 80f
10:24am 10 13 mph 1016.3mb 79f 80f
10:18am 8 10 mph 1016.2mb 79f 80f
10:12am 7 9 mph 1016.2mb 79f 80f
10:06am 9 11 mph 1016.2mb 79f 79f
10:00am 8 10 mph 1016.1mb 79f 79f
9:54am 9 10 mph 1016.1mb 79f 79f
9:48am 9 11 mph 1016.2mb 79f 79f
9:42am 9 11 mph 1016.2mb 79f 79f
9:36am 10
mph
1016.2mb 79f 79f
9:30am 8 11 mph 1016.1mb 79f 79f
9:24am 10 11 mph 1016.1mb 79f 79f
9:18am 10 11 mph 1016mb 79f 79f
9:12am 9 11 mph 1016mb 79f 79f
9:06am 10 11 mph 1016mb 79f 79f
9:00am 9 11 mph 1015.9mb 79f 79f
8:54am 10 11 mph 1015.9mb 79f 79f
8:48am 10 11 mph 1015.8mb 79f 79f
8:42am 9 10 mph 1015.8mb 79f 79f
8:36am 9 10 mph 1015.8mb 79f 79f
8:30am 8 11 mph 1015.6mb 79f 79f
8:24am 9 10 mph 1015.6mb 79f 79f
8:18am 8 9 mph 1015.5mb 79f 79f
8:12am 8 9 mph 1015.5mb 79f 79f
8:06am 6 8 mph 1015.6mb 79f 79f
8:00am 7 8 mph 1015.5mb 79f 79f
7:54am 7 9 mph 1015.4mb 79f 79f
7:48am 7 8 mph 1015.4mb 79f 79f
7:42am 6 8 mph 1015.3mb 79f 79f
7:36am 5 6 mph 1015.4mb 79f 79f
7:30am 5 7 mph 1015.3mb 79f 79f
7:24am 5 6 mph 1015.2mb 79f 79f
7:18am 3 6 mph 1015.2mb 79f 79f
7:12am 5 6 mph 1015.2mb 79f 79f
7:06am 6 7 mph 1015mb 79f 79f
7:00am 5 7 mph 1015mb 79f 79f
6:54am 3 5 mph 1015mb 79f 79f
6:48am 5 6 mph 1015mb 79f 79f
6:42am 5 6 mph 1014.9mb 79f 79f
6:36am 5 7 mph 1014.9mb 79f 79f
6:30am 5 6 mph 1014.8mb 79f 79f
6:24am 5 7 mph 1014.8mb 79f 79f
6:18am 6 8 mph 1014.6mb 79f 79f
6:12am 6 8 mph 1014.5mb 79f 79f
6:06am 5 7 mph 1014.5mb 79f 79f
6:00am 6 9 mph 1014.4mb 79f 79f
5:54am 6 8 mph 1014.4mb 79f 79f
5:48am 6 9 mph 1014.4mb 79f 79f
5:42am 5 9 mph 1014.3mb 79f 79f
5:36am 6 9 mph 1014.4mb 79f 79f
5:30am 6 8 mph 1014.4mb 79f 79f
5:24am 6 10 mph 1014.4mb 79f 79f
5:18am 6 9 mph 1014.4mb 79f 79f
5:12am 6 9 mph 1014.3mb 79f 79f
5:06am 7 11 mph 1014.3mb 79f 79f
5:00am 6 10 mph 1014.2mb 79f 79f
4:54am 7 11 mph 1014.3mb 79f 79f
4:48am 7 9 mph 1014.4mb 79f 79f
4:42am 7 10 mph 1014.4mb 79f 79f
4:36am 7 10 mph 1014.5mb 79f 79f
4:30am 7 10 mph 1014.5mb 79f 79f
4:24am 7 14 mph 1014.5mb 79f 79f
4:18am 8 11 mph 1014.5mb 79f 79f
4:12am 8 13 mph 1014.5mb 79f 79f
4:06am 8 11 mph 1014.5mb 79f 79f
4:00am 7 11 mph 1014.5mb 79f 78f
3:54am 9 11 mph 1014.5mb 79f 78f
3:48am 8 13 mph 1014.5mb 79f 78f
3:42am 7 10 mph 1014.4mb 79f 78f
3:36am 7 10 mph 1014.4mb 79f 78f
3:30am 7 13 mph 1014.4mb 79f 78f
3:24am 9 13 mph 1014.4mb 79f 78f
3:18am 9 13 mph 1014.5mb 79f 78f
3:12am 7 13 mph 1014.5mb 79f 78f
3:06am 8 13 mph 1014.5mb 79f 78f
3:00am 7 14 mph 1014.5mb 79f 78f
2:54am 7 11 mph 1014.5mb 79f 78f
2:48am 9 13 mph 1014.5mb 79f 78f
2:42am 8 11 mph 1014.5mb 79f 78f
2:36am 9 13 mph 1014.5mb 79f 78f
2:30am 9 15 mph 1014.6mb 79f -
2:24am 9 15 mph 1014.6mb 79f -
2:18am 10 13 mph 1014.7mb 79f 78f
2:12am 9 14 mph 1014.7mb 79f 78f
2:06am 9 13 mph 1014.7mb 79f 78f
2:00am 8 13 mph 1014.9mb 79f 78f
1:54am 8 11 mph 1015.1mb 79f 78f
1:48am 9 14 mph 1015.1mb 79f 78f
1:42am 8 14 mph 1015.2mb 79f 78f
1:36am 13 15 mph 1015.2mb 79f 78f
1:30am 11 15 mph 1015.1mb 79f 78f
1:24am 9 13 mph 1015.2mb 79f 78f
1:18am 9 14 mph 1015.2mb 79f 78f
1:12am 10 14 mph 1015.1mb 79f 78f
1:06am 9 11 mph 1015.2mb 79f 78f
1:00am 9 11 mph 1015.2mb 79f 78f
12:54am 7 9 mph 1015.3mb 79f 78f
12:48am  -  mph 1015.3mb 79f 78f
12:42am  -  mph 1015.3mb 79f 78f
12:36am  -  mph 1015.3mb 79f 78f
12:30am 8 13 mph 1015.3mb 79f 78f
12:24am 8 13 mph 1015.3mb 79f 78f
12:18am 9 14 mph 1015.3mb 79f 78f
12:12am 7 13 mph 1015.3mb 79f 78f
12:06am 9 13 mph 1015.2mb 79f 78f
12:00am 9 15 mph 1015.2mb 79f 78f
Fri 05/20 11:54pm 11 15 mph 1015.2mb 79f 78f
11:48pm 8 13 mph 1015.2mb 79f 78f
11:42pm 8 15 mph 1015.2mb 79f 78f
11:36pm 9 16 mph 1015.2mb 79f 78f
11:30pm 11 15 mph 1015.2mb 79f 78f
11:24pm 10 16 mph 1015.2mb 79f 78f
11:18pm 11 15 mph 1015.1mb 79f 78f
11:12pm 10 16 mph 1015.1mb 79f 78f
11:06pm 9 14 mph 1015.1mb 79f 78f
11:00pm 9 16 mph 1015mb 79f 78f
10:54pm 10 16 mph 1015mb 79f 78f
10:48pm  -  mph 1014.9mb 79f 78f
10:42pm  -  mph 1014.8mb 79f 78f
10:36pm  -  mph 1014.8mb 79f 78f
10:30pm 10 13 mph 1014.7mb 79f 78f
10:24pm 8 14 mph 1014.6mb 79f 78f
10:18pm 9 14 mph 1014.5mb 79f 78f
10:12pm 11 15 mph 1014.4mb 79f 78f
10:06pm 9 13 mph 1014.3mb 79f 78f
10:00pm  -  mph - 79f 78f
9:54pm  -  mph - 79f 78f
9:48pm 9 15 mph - - -
9:42pm 10 14 mph - - -
9:36pm 9 14 mph - - -
9:30pm  -  mph - 79f -
9:24pm  -  mph - 79f -
9:18pm  -  mph 1013.9mb 79f 78f
9:12pm  -  mph 1013.9mb 79f 78f
9:06pm  -  mph 1013.8mb 79f 78f
9:00pm  -  mph 1013.6mb 79f 78f
8:54pm  -  mph 1013.5mb 79f 78f
8:48pm 9 14 mph 1013.5mb - -
8:42pm 9 13 mph 1013.5mb - -
8:36pm 9 15 mph 1013.4mb - -
8:30pm 8 14 mph 1013.5mb - -
8:24pm 9 14 mph 1013.4mb - -
8:18pm 9 13 mph - - 78f
8:12pm 9 13 mph - - 78f
8:06pm 9 14 mph - - 78f
8:00pm  -  mph 1013.3mb 79f 78f
7:54pm  -  mph 1013.3mb 79f 78f
7:48pm 10 14 mph - - -
7:42pm 9 13 mph - - -
7:36pm 11 16 mph - - -
7:30pm  -  mph 1013.1mb 80f -
7:24pm  -  mph 1013.1mb 79f -
7:18pm 13 15 mph 1013.1mb 80f 78f
7:12pm 14 16 mph 1013mb 79f 78f
7:06pm 11 15 mph 1013mb 80f 78f
7:00pm  -  mph 1013mb 80f 78f
6:54pm  -  mph 1013mb 80f 78f
6:48pm 11 16 mph 1012.9mb 80f -
6:42pm 13 16 mph 1012.9mb 80f -
6:36pm 14 16 mph 1012.8mb 80f -
6:30pm  -  mph - 80f 78f
6:24pm  -  mph - 80f 78f
6:18pm  -  mph 1012.9mb 80f 78f
6:12pm  -  mph 1012.8mb 80f 78f
6:06pm  -  mph 1012.8mb 80f 78f
6:00pm  -  mph 1012.8mb 80f -
5:54pm  -  mph 1012.8mb 80f -
5:48pm  -  mph 1012.8mb 80f -
5:42pm  -  mph 1012.7mb 80f -
5:36pm  -  mph 1012.8mb 80f -
5:30pm  -  mph 1012.8mb 80f -
5:24pm  -  mph 1012.8mb 80f -
5:18pm  -  mph 1012.9mb 80f -
5:12pm  -  mph 1013mb 80f -
5:06pm  -  mph 1013.1mb 80f -
5:00pm  -  mph 1013.1mb 80f -
4:54pm  -  mph 1013.1mb 80f -
4:48pm 11 16 mph - 80f 78f
4:42pm 11 15 mph - 80f 78f
4:36pm 13 15 mph - 80f 78f
4:30pm 13 17 mph 1013.2mb 80f 78f
4:24pm 11 17 mph 1013.2mb 80f 78f
4:18pm 14 17 mph 1013.2mb 80f 78f
4:12pm 14 17 mph 1013.3mb 80f 78f
4:06pm 14 17 mph 1013.4mb 80f 77f
4:00pm 16 17 mph 1013.4mb 80f 77f
3:54pm 13 16 mph 1013.5mb 80f 77f
3:48pm 14 17 mph 1013.5mb 80f 78f
3:42pm 16 17 mph 1013.5mb 80f 77f
3:36pm 14 18 mph 1013.5mb 80f 78f
3:30pm 13 18 mph 1013.6mb 80f 78f
3:24pm 14 16 mph 1013.7mb 80f 77f
3:18pm 14 16 mph 1013.8mb 80f 77f
3:12pm 14 17 mph 1013.8mb 80f 77f
3:06pm 14 17 mph 1013.9mb 80f 77f
3:00pm 15 17 mph 1013.9mb 80f 77f
2:54pm 14 16 mph 1013.8mb 80f 77f
2:48pm 14 16 mph 1013.8mb 80f 77f
2:42pm 13 16 mph 1013.9mb 80f 77f
2:36pm 15 16 mph 1013.9mb 80f 77f
2:30pm 13 15 mph 1013.9mb 80f 78f
2:24pm 13 14 mph 1013.9mb 80f 78f
2:18pm 13 15 mph 1014mb 80f 77f
2:12pm 14 15 mph 1014mb 80f 77f
2:06pm 14 16 mph 1014mb 80f 77f
2:00pm 14 18 mph 1014.1mb 80f 77f
1:54pm 16 18 mph 1014mb 80f 77f
1:48pm 16 18 mph 1014mb 80f 77f
1:42pm 15 18 mph 1014.1mb 80f 77f
1:36pm 15 17 mph 1014.2mb 80f 76f
1:30pm 15 18 mph 1014.3mb 80f 77f
1:24pm 14 17 mph 1014.3mb 80f 77f
1:18pm 14 18 mph 1014.3mb 80f 76f
1:12pm 14 18 mph 1014.2mb 80f 76f
1:06pm 14 16 mph 1014.5mb 80f 76f
1:00pm 13 16 mph 1014.6mb 79f 76f
12:54pm 14 16 mph 1014.9mb 79f 76f
12:48pm 11 15 mph 1015mb 79f 76f
12:42pm 13 15 mph 1015mb 79f 76f
12:36pm 14 16 mph 1015mb 79f 76f
12:30pm 14 16 mph 1014.9mb 79f 76f
12:24pm 14 16 mph 1014.8mb 79f 76f
12:18pm 13 15 mph 1014.9mb 79f 76f
12:12pm 15 18 mph 1014.8mb 79f 76f
12:06pm 15 17 mph 1014.6mb 79f 76f
12:00pm 15 17 mph 1014.7mb 79f 76f
11:54am 14 16 mph 1014.8mb 79f 76f
11:48am 15 16 mph 1014.8mb 79f 75f
11:42am 14 17 mph 1014.9mb 79f 75f
11:36am 14 17 mph 1014.7mb 79f 75f
11:30am 16 17 mph 1014.8mb 79f 75f
11:24am 15 17 mph 1014.7mb 79f 75f
11:18am 16 18 mph 1014.5mb 79f 75f
11:12am 16 20 mph 1014.6mb 79f 75f
11:06am 15 18 mph 1014.5mb 79f 75f
11:00am 14 17 mph 1014.6mb 79f 75f
10:54am 15 18 mph 1014.7mb 79f 75f
10:48am 16 18 mph 1014.7mb 79f 74f
10:42am 16 18 mph 1014.9mb 79f 74f
10:36am 14 16 mph 1015mb 79f 74f
10:30am 13 17 mph 1015mb 79f 74f
10:24am 13 16 mph 1014.9mb 79f 74f
10:18am 14 16 mph 1015.1mb 79f 74f
10:12am 14 16 mph 1015mb 79f 74f
10:06am 14 16 mph 1014.9mb 79f 74f
10:00am 10 14 mph 1014.8mb 79f 74f
9:54am 13 16 mph 1014.6mb 79f 74f
9:48am 14 17 mph 1014.4mb 79f 74f
9:42am 14 17 mph 1014.3mb 79f 73f
9:36am 13 18 mph 1014.3mb 79f 73f
9:30am 16 17 mph 1014.3mb 79f 73f
9:24am 14 16 mph 1014.2mb 79f 73f
9:18am 14 17 mph 1014.2mb 79f 73f
9:12am 13 16 mph 1014mb 79f 73f
9:06am 13 16 mph 1014mb 79f 73f
9:00am 15 18 mph 1013.9mb 79f 73f
8:54am 14 16 mph 1013.9mb 79f 73f
8:48am 13 16 mph 1013.9mb 79f 73f
8:42am 13 15 mph 1013.8mb 79f 73f
8:36am 11 16 mph 1013.9mb 79f 73f
8:30am 11 15 mph 1013.8mb 79f 73f
8:24am 13 16 mph 1013.7mb 79f 72f
8:18am 14 16 mph 1013.7mb 79f 72f
8:12am 14 16 mph 1013.7mb 79f 72f
8:06am 14 16 mph 1013.7mb 79f 72f
8:00am 13 15 mph 1013.8mb 79f 72f
7:54am 13 16 mph 1013.8mb 79f 72f
7:48am 14 15 mph 1013.6mb 79f 71f
7:42am 14 16 mph 1013.6mb 79f 71f
7:36am 13 18 mph 1013.5mb 79f 71f
7:30am 15 18 mph 1013.3mb 79f 71f
7:24am 14 17 mph 1013.2mb 79f 71f